Location: Newark
(43.0000°N, 1.6781°W)
Time: 01:51:29
(UTC+00:00)

X-37B - Pass Details

Date: 11 December 2021
Orbit: 334 x 337 km, 45.0° (Epoch: 11 January)

Event Time Altitude Azimuth Distance (km) Brightness Sun altitude
Rises 16:57:02 0° 248° (WSW) 2,098 7.0 -4.8°
Reaches altitude 10° 16:59:02 10° 247° (WSW) 1,263 5.1 -5.1°
Maximum altitude 17:01:52 76° 162° (SSE) 347 0.4 -5.6°
Drops below altitude 10° 17:04:42 10° 76° (ENE) 1,267 2.5 -6.1°
Enters shadow 17:05:04 - 75° (ENE) 1,425 2.8 -6.1°
